Location: Decatur Area Astronomy Club
(40.0275°N, 88.7810°W)
Time: 19:02:11
(UTC-05:00)

Amateur Radio Satellites - All Passes

Search period start: 24 March 2017 18:32
Search period end: 25 March 2017 18:32
Location: Decatur Area Astronomy Club, 40.0275°N, 88.7810°W

Satellite Date Start Highest point End Downlink Frequencies (MHz)
Time Altitude Azimuth
CUTE 1.7 + AOD 2 24 Mar 18:34:35 18:37:01 15° 66° (ENE) 18:39:28 437.475
XW-2D 24 Mar 18:48:07 18:51:41 38° 262° (W) 18:55:15 145.860 - 145.880
KKS-1 24 Mar 18:48:44 18:51:33 17° 296° (WNW) 18:54:22 437.445
XW-2B 24 Mar 18:54:06 18:57:34 33° 263° (W) 19:01:03 145.730 - 145.750
NUDT-PHONESAT 24 Mar 18:55:45 18:59:17 38° 262° (W) 19:02:49 437.300
CUTE-I 24 Mar 18:55:54 19:01:05 49° 260° (W) 19:06:19 437.470
M-CUBED/EXP-1 PRIME 24 Mar 18:59:58 19:04:23 43° 104° (ESE) 19:08:50 437.505
KAITUO 1B 24 Mar 19:00:18 19:03:44 33° 262° (W) 19:07:10 145.475/437.950
O/OREOS (USA 219) 24 Mar 19:03:46 19:06:43 17° 305° (NW) 19:09:40 437.305
XW-2C 24 Mar 19:04:32 19:07:43 25° 264° (W) 19:10:54 145.795 - 145.815
PCSat 24 Mar 19:25:49 19:31:11 58° 58° (ENE) 19:36:32 145.827
DOVE 4 24 Mar 19:27:04 19:29:54 16° 270° (W) 19:32:50 437.250
CUBEBUG 2 24 Mar 19:27:55 19:32:03 30° 69° (ENE) 19:36:09 437.445
STARS 24 Mar 19:31:49 19:33:52 13° 297° (WNW) 19:35:54 437.465
STRAND 1 24 Mar 19:34:28 19:38:46 27° 95° (E) 19:43:01 437.568
RS-15 24 Mar 19:38:16 19:47:59 25° 21° (NNE) 19:57:30 29.354- 29.394
XW-2A 24 Mar 19:42:21 19:45:45 60° 260° (W) 19:49:11 145.665 - 145.685
Oscar 11 24 Mar 19:44:31 19:45:57 11° 63° (ENE) 19:47:23 .
ZACube-1 24 Mar 19:46:14 19:49:08 17° 66° (ENE) 19:52:01 437.345
AAUSAT CUBESAT 2 24 Mar 19:56:53 20:00:41 38° 72° (ENE) 20:04:30 437.432
YUBILEINY 24 Mar 19:58:58 20:07:36 70° 267° (W) 20:16:12 435.215
SEEDS 24 Mar 20:05:33 20:09:42 77° 258° (WSW) 20:13:53 437.485
CUTE 1.7 + AOD 2 24 Mar 20:08:26 20:12:28 45° 261° (W) 20:16:31 437.475
AO-73 24 Mar 20:14:44 20:18:41 30° 70° (ENE) 20:22:34 145.935
HO-68 24 Mar 20:17:18 20:24:11 50° 260° (W) 20:31:08 435.675
AO-85 24 Mar 20:22:16 20:23:31 11° 109° (ESE) 20:24:45 145.980
UWE-3 24 Mar 20:34:35 20:39:16 89° 251° (WSW) 20:43:56 435.000/436.395/437.385
Tancredo 1 24 Mar 20:34:36 20:36:18 14° 130° (SE) 20:37:59 437.200
M-CUBED/EXP-1 PRIME 24 Mar 20:35:02 20:38:31 21° 298° (WNW) 20:42:01 437.505
CUBEBUG 2 24 Mar 21:04:30 21:08:34 28° 265° (W) 21:12:39 437.445
PCSat 24 Mar 21:10:24 21:14:05 19° 255° (WSW) 21:17:44 145.827
STRAND 1 24 Mar 21:13:21 21:17:57 35° 292° (WNW) 21:22:33 437.568
Oscar 11 24 Mar 21:17:13 21:21:30 66° 259° (W) 21:25:49 .
ZACube-1 24 Mar 21:20:37 21:25:02 48° 261° (W) 21:29:24 437.345
AAUSAT CUBESAT 2 24 Mar 21:33:47 21:36:18 16° 268° (W) 21:38:50 437.432
DELFI C3 24 Mar 21:35:12 21:39:02 56° 74° (ENE) 21:42:53 145.870
AO-73 24 Mar 21:51:06 21:54:52 25° 265° (W) 21:58:36 145.935
RS-15 24 Mar 21:51:32 22:03:46 62° 51° (NE) 22:15:25 29.354- 29.394
AO-85 24 Mar 21:59:01 22:03:27 70° 303° (WNW) 22:07:37 145.980
ISS 24 Mar 21:59:19 22:02:34 83° 323° (NW) 22:05:51 437.550
YUBILEINY 24 Mar 22:00:14 22:02:38 11° 286° (WNW) 22:05:03 435.215
Tancredo 1 24 Mar 22:08:58 22:12:05 58° 326° (NW) 22:15:15 437.200
LO-87 24 Mar 22:14:48 22:17:10 17° 68° (ENE) 22:19:33 145.935 - 145.965
BEESAT 3 24 Mar 22:20:09 22:22:45 17° 110° (ESE) 22:25:23 437.485
PRISM 24 Mar 22:44:08 22:48:18 79° 284° (WNW) 22:52:27 437.425
TIGRISAT 24 Mar 22:45:38 22:49:55 46° 99° (E) 22:54:04 435.000
UNISAT 6 24 Mar 22:55:04 22:59:30 65° 101° (E) 23:03:48 437.425
VELOX 1 24 Mar 23:04:46 23:06:38 13° 62° (ENE) 23:08:30 145.980
SO-50 24 Mar 23:09:51 23:12:51 17° 43° (NE) 23:15:49 436.795
ESTCUBE 1 24 Mar 23:17:03 23:21:24 54° 73° (ENE) 23:25:46 437.505/2401.250
FO-29 24 Mar 23:30:19 23:36:26 74° 103° (ESE) 23:41:52 435.910
ISS 24 Mar 23:37:11 23:39:27 17° 341° (NNW) 23:41:45 437.550
Tancredo 1 24 Mar 23:46:55 23:48:47 14° 344° (NNW) 23:50:39 437.200
LO-87 24 Mar 23:47:17 23:50:24 28° 264° (W) 23:53:32 145.935 - 145.965
NANOSAT C BR1 24 Mar 23:47:43 23:50:24 16° 93° (E) 23:53:04 145.865
EO-79 24 Mar 23:50:40 23:53:45 19° 94° (E) 23:56:49 145.935-145.965
BEESAT 3 24 Mar 23:56:21 00:00:03 38° 308° (NW) 00:03:47 437.485
SPROUT 25 Mar 00:01:34 00:05:36 41° 72° (ENE) 00:09:40 437.525
RS-15 25 Mar 00:04:48 00:15:41 41° 254° (WSW) 00:26:09 29.354- 29.394
BEESAT 2 25 Mar 00:07:08 00:11:04 75° 302° (WNW) 00:15:05 435.950
POLYITAN 1 25 Mar 00:17:29 00:21:28 39° 98° (E) 00:25:25 437.675
QB50P2 25 Mar 00:21:54 00:26:02 48° 99° (E) 00:30:07 145.880/145.840
DX 1 25 Mar 00:22:10 00:26:05 34° 70° (ENE) 00:30:02 434.975-435.025
TIGRISAT 25 Mar 00:23:28 00:26:11 16° 296° (WNW) 00:28:52 435.000
UNISAT 6 25 Mar 00:33:53 00:35:36 12° 298° (WNW) 00:37:18 437.425
AIST 2D 25 Mar 00:35:01 00:38:27 55° 285° (WNW) 00:41:51 435.315
DUCHIFAT 1 25 Mar 00:37:08 00:41:17 55° 101° (E) 00:45:22 145.980
VELOX 1 25 Mar 00:38:10 00:42:31 63° 258° (WSW) 00:46:56 145.980
SO-50 25 Mar 00:49:17 00:53:43 64° 241° (WSW) 00:58:09 436.795
50 SAT 25 Mar 00:53:04 00:56:27 57° 259° (W) 00:59:52 437.505
ESTCUBE 1 25 Mar 00:56:18 00:58:30 13° 269° (W) 01:00:43 437.505/2401.250
BUGSAT 1 25 Mar 01:01:26 01:05:13 33° 97° (E) 01:08:57 437.445
UKube-1 25 Mar 01:05:47 01:10:04 75° 75° (ENE) 01:14:24 .
ISS 25 Mar 01:15:58 01:16:59 11° 2° (N) 01:18:01 437.550
FO-29 25 Mar 01:17:03 01:20:37 16° 303° (WNW) 01:23:59 435.910
NANOSAT C BR1 25 Mar 01:22:19 01:26:16 39° 288° (WNW) 01:30:11 145.865
Tancredo 1 25 Mar 01:25:08 01:26:01 11° 5° (N) 01:26:53 437.200
EO-79 25 Mar 01:25:46 01:29:35 33° 290° (WNW) 01:33:22 145.935-145.965
SPROUT 25 Mar 01:38:59 01:41:41 16° 268° (W) 01:44:24 437.525
POLYITAN 1 25 Mar 01:54:08 01:56:56 17° 294° (WNW) 01:59:43 437.675
O/OREOS (USA 219) 25 Mar 01:56:42 01:57:35 10° 50° (NE) 01:58:29 437.305
QB50P2 25 Mar 01:59:03 02:01:24 15° 295° (WNW) 02:03:44 145.880/145.840
DX 1 25 Mar 01:59:08 02:02:20 20° 266° (W) 02:05:34 434.975-435.025
BEESAT 25 Mar 02:04:07 02:07:58 25° 66° (ENE) 02:11:47 436.000
Gurwin Techsat 1B 25 Mar 02:13:16 02:18:01 32° 97° (E) 02:22:45 435.225
Oscar 19 25 Mar 02:13:43 02:18:49 58° 101° (E) 02:23:55 437.125/150
DUCHIFAT 1 25 Mar 02:14:31 02:16:28 13° 296° (WNW) 02:18:22 145.980
ITUPSAT 1 25 Mar 02:18:33 02:22:49 33° 69° (ENE) 02:27:06 437.325
BUGSAT 1 25 Mar 02:37:17 02:40:20 20° 293° (WNW) 02:43:22 437.445
MOZHAYETS 4 25 Mar 02:38:03 02:41:28 21° 66° (ENE) 02:44:52
ISS 25 Mar 02:51:56 02:54:27 20° 22° (NNE) 02:56:59 437.550
Tancredo 1 25 Mar 03:00:27 03:03:05 23° 25° (NNE) 03:05:43 437.200
CUBESAT XI-V 25 Mar 03:27:38 03:28:56 11° 62° (ENE) 03:30:14 437.345
O/OREOS (USA 219) 25 Mar 03:33:04 03:37:42 88° 69° (ENE) 03:42:19 437.305
BEESAT 25 Mar 03:41:12 03:45:32 35° 262° (W) 03:49:55 436.000
Gurwin Techsat 1B 25 Mar 03:53:15 03:57:52 31° 293° (WNW) 04:02:29 435.225
Oscar 19 25 Mar 03:54:18 03:57:39 18° 297° (WNW) 04:01:00 437.125/150
ITAMSAT 1 25 Mar 03:56:40 04:01:44 50° 100° (E) 04:06:45 435.822/435.867
ITUPSAT 1 25 Mar 03:56:42 04:00:39 25° 265° (W) 04:04:37 437.325
AO-7 25 Mar 04:02:15 04:10:07 45° 101° (E) 04:17:57 .
KKS-1 25 Mar 04:08:15 04:12:24 40° 71° (ENE) 04:16:36 437.445
MOZHAYETS 4 25 Mar 04:14:04 04:18:21 38° 262° (W) 04:22:39
ISS 25 Mar 04:27:56 04:31:13 72° 219° (SW) 04:34:30 437.550
Tancredo 1 25 Mar 04:36:16 04:39:23 49° 222° (SW) 04:42:30 437.200
STARS 25 Mar 04:49:17 04:53:32 49° 72° (ENE) 04:57:50 437.465
CUBESAT XI-V 25 Mar 05:01:04 05:05:38 77° 258° (WSW) 05:10:15 437.345
ITAMSAT 1 25 Mar 05:37:04 05:40:48 20° 297° (WNW) 05:44:32 435.822/435.867
M-CUBED/EXP-1 PRIME 25 Mar 05:45:39 05:49:04 40° 66° (ENE) 05:52:46 437.505
KKS-1 25 Mar 05:46:03 05:49:07 18° 267° (W) 05:52:12 437.445
DOVE 4 25 Mar 05:47:42 05:51:09 17° 90° (E) 05:54:35 437.250
AO-7 25 Mar 05:55:12 06:02:45 41° 299° (WNW) 06:10:18 .
LilacSat-2 25 Mar 05:57:21 05:57:41 10° 90° (E) 05:58:01 437.200
XW-2D 25 Mar 06:21:37 06:24:31 21° 95° (E) 06:27:23 145.860 - 145.880
XW-2B 25 Mar 06:27:23 06:30:27 24° 95° (E) 06:33:29 145.730 - 145.750
NUDT-PHONESAT 25 Mar 06:27:27 06:30:07 19° 94° (E) 06:32:46 437.300
STARS 25 Mar 06:27:41 06:30:08 15° 268° (W) 06:32:37 437.465
AO-85 25 Mar 06:30:41 06:34:37 77° 58° (ENE) 06:38:40 145.980
KAITUO 1B 25 Mar 06:32:22 06:35:17 22° 95° (E) 06:38:11 145.475/437.950
XW-2C 25 Mar 06:37:13 06:40:37 32° 97° (E) 06:43:58 145.795 - 145.815
BEESAT 3 25 Mar 06:37:45 06:39:14 12° 41° (NE) 06:40:42 437.485
STRAND 1 25 Mar 06:49:31 06:54:12 36° 69° (ENE) 06:58:53 437.568
YUBILEINY 25 Mar 07:03:59 07:11:04 29° 83° (E) 07:18:07 435.215
CUTE-I 25 Mar 07:13:20 07:18:42 71° 102° (ESE) 07:24:00 437.470
M-CUBED/EXP-1 PRIME 25 Mar 07:22:04 07:23:48 13° 265° (W) 07:25:37 437.505
DOVE 4 25 Mar 07:23:56 07:29:10 58° 287° (WNW) 07:34:17 437.250
NO-84 25 Mar 07:26:16 07:29:04 52° 133° (SE) 07:31:50 435.350 FM
LilacSat-2 25 Mar 07:28:36 07:32:15 49° 286° (WNW) 07:35:53 437.200
XW-2F 25 Mar 07:30:13 07:33:51 51° 285° (WNW) 07:37:27 145.980 - 146.000
HO-68 25 Mar 07:45:41 07:52:03 34° 97° (E) 07:58:23 435.675
SEEDS 25 Mar 07:50:48 07:53:41 18° 93° (E) 07:56:33 437.485
CUTE 1.7 + AOD 2 25 Mar 07:53:53 07:57:36 30° 96° (E) 08:01:19 437.475
XW-2D 25 Mar 07:55:37 07:58:39 24° 290° (WNW) 08:01:41 145.860 - 145.880
NUDT-PHONESAT 25 Mar 08:00:57 08:04:01 25° 290° (WNW) 08:07:04 437.300
XW-2B 25 Mar 08:01:38 08:04:31 21° 291° (WNW) 08:07:23 145.730 - 145.750
KAITUO 1B 25 Mar 08:06:18 08:09:13 22° 290° (WNW) 08:12:07 145.475/437.950
XW-2C 25 Mar 08:12:11 08:14:33 16° 293° (WNW) 08:16:55 145.795 - 145.815
BEESAT 3 25 Mar 08:13:21 08:17:24 86° 236° (SW) 08:21:24 437.485
BEESAT 2 25 Mar 08:25:23 08:29:21 49° 55° (NE) 08:33:16 435.950
UWE-3 25 Mar 08:26:05 08:29:07 18° 93° (E) 08:32:05 435.000/436.395/437.385
STRAND 1 25 Mar 08:29:09 08:33:24 26° 265° (W) 08:37:42 437.568
XW-2A 25 Mar 08:37:38 08:40:56 50° 285° (WNW) 08:44:10 145.665 - 145.685
CUTE-I 25 Mar 08:55:02 08:58:07 16° 299° (WNW) 09:01:11 437.470
CUBEBUG 2 25 Mar 08:55:25 08:59:50 68° 100° (E) 09:04:06 437.445
YUBILEINY 25 Mar 08:58:38 09:07:15 60° 282° (WNW) 09:15:52 435.215
NO-84 25 Mar 09:05:09 09:06:49 14° 332° (NNW) 09:08:31 435.350 FM
Oscar 11 25 Mar 09:05:32 09:08:59 23° 95° (E) 09:12:23 .
ZACube-1 25 Mar 09:09:49 09:13:39 32° 97° (E) 09:17:23 437.345
AAUSAT CUBESAT 2 25 Mar 09:14:24 09:18:33 81° 102° (ESE) 09:22:43 437.432
SEEDS 25 Mar 09:25:38 09:29:27 35° 289° (WNW) 09:33:16 437.485
CUTE 1.7 + AOD 2 25 Mar 09:30:02 09:33:16 22° 292° (WNW) 09:36:30 437.475
PRISM 25 Mar 09:32:25 09:36:25 64° 74° (ENE) 09:40:28 437.425
HO-68 25 Mar 09:33:08 09:39:52 46° 294° (WNW) 09:46:36 435.675
AO-73 25 Mar 09:38:53 09:43:06 65° 101° (E) 09:47:12 145.935
FO-29 25 Mar 09:39:44 09:46:42 37° 66° (ENE) 09:53:18 435.910
TIGRISAT 25 Mar 09:43:04 09:47:25 39° 71° (ENE) 09:51:46 435.000
UNISAT 6 25 Mar 09:52:32 09:57:05 53° 73° (ENE) 10:01:39 437.425
UWE-3 25 Mar 10:01:44 10:05:41 35° 289° (WNW) 10:09:31 435.000/436.395/437.385
BEESAT 2 25 Mar 10:04:32 10:06:41 14° 251° (WSW) 10:08:49 435.950
PCSat 25 Mar 10:06:32 10:11:51 62° 114° (ESE) 10:17:12 145.827
CUBEBUG 2 25 Mar 10:34:24 10:35:48 11° 298° (WNW) 10:37:12 437.445
NANOSAT C BR1 25 Mar 10:40:14 10:42:00 12° 63° (ENE) 10:43:45 145.865
Oscar 11 25 Mar 10:41:22 10:45:05 29° 290° (WNW) 10:48:48 .
EO-79 25 Mar 10:43:11 10:45:33 15° 64° (ENE) 10:47:56 145.935-145.965
ZACube-1 25 Mar 10:46:35 10:49:42 20° 293° (WNW) 10:52:46 437.345
DELFI C3 25 Mar 10:47:19 10:51:18 78° 284° (WNW) 10:55:17 145.870
YUBILEINY 25 Mar 11:04:38 11:06:10 10° 304° (NW) 11:07:42 435.215
AIST 2D 25 Mar 11:08:30 11:11:51 41° 74° (ENE) 11:15:12 435.315
POLYITAN 1 25 Mar 11:09:22 11:13:01 28° 69° (ENE) 11:16:41 437.675
ESTCUBE 1 25 Mar 11:12:10 11:13:49 12° 90° (E) 11:15:29 437.505/2401.250
QB50P2 25 Mar 11:13:41 11:17:32 33° 71° (ENE) 11:21:23 145.880/145.840
LO-87 25 Mar 11:14:55 11:17:49 22° 95° (E) 11:20:41 145.935 - 145.965
AO-73 25 Mar 11:17:38 11:18:44 11° 298° (WNW) 11:19:50 145.935
TIGRISAT 25 Mar 11:20:41 11:24:12 21° 267° (W) 11:27:42 435.000
FO-29 25 Mar 11:23:55 11:31:26 49° 261° (W) 11:38:40 435.910
DUCHIFAT 1 25 Mar 11:28:02 11:31:56 36° 71° (ENE) 11:35:51 145.980
UNISAT 6 25 Mar 11:31:20 11:34:04 15° 269° (W) 11:36:48 437.425
BUGSAT 1 25 Mar 11:50:36 11:53:53 22° 68° (ENE) 11:57:11 437.445
PCSat 25 Mar 11:51:34 11:55:40 21° 313° (NW) 11:59:47 145.827
NANOSAT C BR1 25 Mar 12:12:59 12:17:10 60° 259° (W) 12:21:25 145.865
RS-15 25 Mar 12:13:57 12:24:36 41° 106° (ESE) 12:35:35 29.354- 29.394
EO-79 25 Mar 12:16:44 12:20:53 49° 260° (W) 12:25:04 145.935-145.965
VELOX 1 25 Mar 12:29:10 12:32:52 25° 96° (E) 12:36:31 145.980
AIST 2D 25 Mar 12:44:27 12:45:16 11° 269° (W) 12:46:05 435.315
POLYITAN 1 25 Mar 12:45:15 12:48:45 24° 265° (W) 12:52:16 437.675
ESTCUBE 1 25 Mar 12:46:33 12:51:00 62° 285° (WNW) 12:55:26 437.505/2401.250
LO-87 25 Mar 12:48:19 12:51:09 22° 291° (WNW) 12:53:59 145.935 - 145.965
QB50P2 25 Mar 12:50:12 12:53:22 20° 266° (W) 12:56:33 145.880/145.840
UKube-1 25 Mar 12:55:12 12:57:11 13° 92° (E) 12:59:08 .
DUCHIFAT 1 25 Mar 13:04:46 13:07:41 18° 266° (W) 13:10:39 145.980
AO-7 25 Mar 13:13:53 13:17:18 13° 45° (NE) 13:20:42 .
SPROUT 25 Mar 13:23:18 13:27:37 89° 74° (ENE) 13:31:54 437.525
BUGSAT 1 25 Mar 13:25:19 13:29:03 30° 263° (W) 13:32:50 437.445
Oscar 19 25 Mar 13:29:50 13:34:56 79° 75° (ENE) 13:40:05 437.125/150
Gurwin Techsat 1B 25 Mar 13:33:32 13:38:37 49° 71° (ENE) 13:43:45 435.225
DX 1 25 Mar 13:46:21 13:50:46 72° 103° (ESE) 13:55:07 434.975-435.025
50 SAT 25 Mar 13:50:47 13:54:10 47° 286° (WNW) 13:57:33 437.505
NO-84 25 Mar 14:00:13 14:03:03 28° 36° (NE) 14:06:05 435.350 FM
VELOX 1 25 Mar 14:05:24 14:09:16 29° 291° (WNW) 14:13:07 145.980
RS-15 25 Mar 14:24:37 14:36:31 63° 309° (NW) 14:48:51 29.354- 29.394
UKube-1 25 Mar 14:29:16 14:33:30 53° 287° (WNW) 14:37:43 .
AO-7 25 Mar 15:00:14 15:08:20 59° 66° (ENE) 15:16:25 .
SO-50 25 Mar 15:02:29 15:06:57 47° 117° (ESE) 15:11:23 436.795
Oscar 19 25 Mar 15:13:20 15:14:50 11° 271° (W) 15:16:20 437.125/150
ITAMSAT 1 25 Mar 15:13:48 15:19:01 73° 74° (ENE) 15:24:14 435.822/435.867
Gurwin Techsat 1B 25 Mar 15:14:57 15:18:48 20° 267° (W) 15:22:42 435.225
DX 1 25 Mar 15:25:01 15:26:19 11° 299° (WNW) 15:27:38 434.975-435.025
NO-84 25 Mar 15:37:41 15:40:35 27° 230° (SW) 15:43:41 435.350 FM
BEESAT 25 Mar 15:41:17 15:46:01 61° 101° (ESE) 15:50:41 436.000
ITUPSAT 1 25 Mar 15:56:38 16:01:26 86° 103° (ESE) 16:06:11 437.325
MOZHAYETS 4 25 Mar 16:09:15 16:13:42 50° 100° (E) 16:18:06
O/OREOS (USA 219) 25 Mar 16:09:18 16:10:15 11° 97° (E) 16:11:12 437.305
RS-15 25 Mar 16:42:34 16:52:15 26° 338° (NNW) 17:02:03 29.354- 29.394
SO-50 25 Mar 16:44:01 16:47:38 22° 314° (NW) 16:51:14 436.795
DOVE 4 25 Mar 16:53:10 16:55:49 15° 62° (ENE) 16:58:32 437.250
AO-7 25 Mar 16:54:22 17:01:26 30° 264° (W) 17:08:33 .
ITAMSAT 1 25 Mar 16:56:36 16:58:58 13° 270° (W) 17:01:21 435.822/435.867
CUTE-I 25 Mar 16:57:39 17:00:28 15° 60° (ENE) 17:03:17 437.470
CUBESAT XI-V 25 Mar 16:58:29 17:02:27 27° 95° (E) 17:06:24 437.345
XW-2D 25 Mar 17:04:34 17:05:15 10° 65° (ENE) 17:05:58 145.860 - 145.880
XW-2B 25 Mar 17:09:42 17:11:08 12° 65° (ENE) 17:12:33 145.730 - 145.750
KAITUO 1B 25 Mar 17:14:09 17:14:49 10° 65° (ENE) 17:15:29 145.475/437.950
YUBILEINY 25 Mar 17:15:56 17:19:26 13° 58° (ENE) 17:22:54 435.215
XW-2C 25 Mar 17:18:51 17:21:10 16° 67° (ENE) 17:23:27 145.795 - 145.815
BEESAT 25 Mar 17:20:38 17:23:15 15° 298° (WNW) 17:25:52 436.000
KKS-1 25 Mar 17:35:45 17:40:16 89° 96° (E) 17:44:44 437.445
ITUPSAT 1 25 Mar 17:37:27 17:38:31 11° 300° (WNW) 17:39:35 437.325
O/OREOS (USA 219) 25 Mar 17:44:29 17:48:59 68° 293° (WNW) 17:53:33 437.305
MOZHAYETS 4 25 Mar 17:47:39 17:50:25 16° 296° (WNW) 17:53:12
LilacSat-2 25 Mar 18:09:15 18:13:02 68° 77° (ENE) 18:16:51 437.200
XW-2F 25 Mar 18:09:57 18:13:42 63° 75° (ENE) 18:17:27 145.980 - 146.000
HO-68 25 Mar 18:14:36 18:20:05 25° 59° (ENE) 18:25:35 435.675
STARS 25 Mar 18:15:11 18:19:38 77° 285° (WNW) 18:24:01 437.465
